Location: Newark
(52.1031°N, 9.3600°E)
Time: 16:51:58
(UTC+00:00)

ISS - Visible Passes

Search period start: 19 October 2019 00:00
Search period end: 29 October 2019 00:00
Orbit: 411 x 421 km, 51.6° (Epoch: 19 October)

Date Brightness Start Highest point End Pass type
(mag) Time Alt. Az. Time Alt. Az. Time Alt. Az.
26 Oct -1.2 04:48:51 10° SSW 04:51:20 19° SE 04:53:48 10° E visible
27 Oct -0.9 04:01:12 10° S 04:02:54 13° SE 04:04:36 10° ESE visible
28 Oct -2.3 04:47:24 10° SW 04:50:28 34° SSE 04:53:34 10° E visible
